Other Surface Observations
Issued by NWS Upton, NY

Current Version | Previous Version | Text Only | Print | Product List | Glossary Off
Versions: 1 2 3 4 5 6 7 8 9 10 11 12 13 14 15 16 17 18 19 20 21 22 23 24 25 26 27 28 29 30 31 32 33 34 35 36 37 38 39 40 41 42 43 44 45 46 47 48 49 50
000 SXUS51 KOKX 210357 OSOOKX NEW YORK CITY METROPOLITAN AREA WEATHER ROUNDUP National Weather Service New York NY 1200 AM EDT THU SEP 21 2017 CITY SKY/WX TMP DP RH WIND PRES REMARKS Central Park MOCLDY 74 63 68 VRB3 29.97R LaGuardia APRT MOCLDY 75 65 70 N13 29.92S Kennedy INTL CLOUDY 75 64 68 N12 29.94R Newark Liberty MOCLDY 75 62 64 NW10 29.94S Teterboro APRT MOCLDY 74 63 68 N8 29.93S Bronx Bot Gard N/A 73 63 68 NW3 29.96S >>>>>>>>>>>>>>>>>>>>>>>>>>>>>>>>> KEY <<<<<<<<<<<<<<<<<<<<<<<<<<<<<<< > SKY/WX - SKY CONDITION/PRESENT : R : WCI - WIND CHILL INDEX < > WEATHER : E : VSB - VISIBILITY IN MILES < > TMP - TEMPERATURE IN DEG F : M : HX - HEAT INDEX < > DP - DEW POINT TEMPERATURE : A : TC - TEMPERATURE IN < > RH - RELATIVE HUMIDITY : R : CELSIUS < > WIND - DIRECTION/SPEED (MPH) : K : VRB - VARIABLE WIND DIR < > PRES - PRESSURE (IN HG) : S : < >>>>>>>>>>>>>>>>>>>>>>>>>>>>>>>>> KEY <<<<<<<<<<<<<<<<<<<<<<<<<<<<<<<

USA.gov is the U.S. government's official web portal to all federal, state and local government web resources and services.